Showing default

TDS 1, 40076

Orbit data source: Space-Track

TDS 1, 40076 is a payload satellite owned by UK TSB (UK) in SSO that was launched on Tue, 08 Jul 2014 UTC via a SOYUZ-2-1B launch vehicle from the Tyuratam Missile And Space Complex (TTMTR). Payload-class satellites include a variety of spacecraft equipped with specific instruments for various scientific and technological missions. These include communications satellites like Starlink; space stations such as the ISS; scientific satellites like the Hubble; Earth observation satellites from companies like Planet Labs, Umbra, and HawkEye 360; GPS; miniature CubeSats for education and research; and military/defense satellites.

Loading next visibility...
Identifier
40076, 2014-037H
Orbit
SSO
Last TLE update
13 hours ago
Origin
Manufacturer
SSTL (Astrium)
Mission
Partially operational Civil Technology
Bus & Motor
SSTL-150, AOCS
Mass
157 kg wet, 157 kg dry
Launch date (UTC)
2014-07-08 (11 years ago)
Launch vehicle
SOYUZ-2-1B
Launch site
Tyuratam Missile And Space Complex (TTMTR)
Object type
Payload
Rocket body
Debris
Shape & HBR
Box, 1 m
Radar Cross Section
1.500 m², Medium (>0.1 m² and < 1m²)

Expand to show TLE details & history

TLE from 13 hours ago
0 TDS 1
1 40076U 14037H   25128.81959540  .00009915  00000-0  70020-3 0  9997
2 40076  98.3406  79.8796 0007485 172.5502 187.5835 15.05136721587324
Epoch: 2025-05-08T19:40Z
Definitive object data (Epoch: 2025-05-08T19:40:13.042Z)
Latitude
-0.00001°
Longitude
-82.05936°
Altitude
559.27 km
Speed
7.579 km/s
True Right ascension
05h 19m 31s
True Declination
0° 00' 00"
Sunlit
Object was in daylight at TLE epoch
Visualization TLE readout
Latitude
44.37463°
Longitude
106.74337°
Altitude
553.533 km
Speed
7.592 km/s
Apparent Right ascension
23h 17m 31s
Apparent Declination
38° 50' 55"
Sunlit
Object is in daylight
Visualization observer readout
Local Sidereal Time
17:11:14
Azimuth
57.561° ENE
Elevation
22.714°
Doppler factor
1
Orbital elements
Apogee altitude
553.298 km
Perigee altitude
542.93 km
Semi-major axis
6,926.251 km
Eccentricity
0.0007485
Inclination
98.3406°
RAAN
79.8796°
Arg. of periapsis
172.5502°
True anomaly
187.57219°
Mean anomaly
187.5835°
Eccentric anomaly
187.57784°
Mean motion
3.76527 °/min
BSTAR
0.0007002
Orbital period
95.61 mins
Loading maneuver chart data...
Loading SW <> Apogee altitude chart data...
Loading historical data...
Loading historical data...
Loading historical data...
Loading historical data...
Loading historical data...
Loading historical data...
Loading historical data...

TDS 1 Visibility forecast

Observer location: undefined°, undefined°

Span
Click to sort rows by Start time (UTC) header in descending order
Start Az.
Max El. time (UTC)
Max El. Az.
Max El.
End time (UTC)
End Az.
4 mins2025-05-09 09:01:58.454Z58.022° ENE2025-05-09 09:03:58.454Z111.851° ESE26.003°2025-05-09 09:05:58.454Z151.351° SSE
5 mins2025-05-09 21:19:58.454Z210.824° SW2025-05-09 21:21:58.454Z252.883° W26.448°2025-05-09 21:24:58.454Z317.926° NNW
4 mins2025-05-10 08:57:58.454Z60.856° ENE2025-05-10 08:59:58.454Z110.322° ESE23.663°2025-05-10 09:01:58.454Z147.797° SSE
|